Location: �mondeville
(49.4591°N, 1.3431°W)
Time: 08:58:44
(UTC+00:00)

Cosmos 2344 - Pass Details

Date: 22 October 2019
Orbit: 1259 x 2983 km, 63.3° (Epoch: 19 November)

Event Time Altitude Azimuth Distance (km) Brightness Sun altitude
Exits shadow 04:05:46 - 317° (NW) 3,776 5.8 -25.1°
Reaches altitude 10° 04:06:00 10° 317° (NW) 3,705 5.7 -25.1°
Maximum altitude 04:15:20 76° 44° (NE) 1,932 4.5 -23.6°
Drops below altitude 10° 04:28:21 10° 131° (SE) 5,035 7.2 -21.5°
Sets 04:32:33 0° 133° (SE) 6,262 7.8 -20.8°
